This demonstration page uses our WeatherBlox Daily Observations layout. Learn more.

Hourly Observations for January 4, 2020

Temp ( °F °C ) Dew Point ( °F °C ) Humidity (%) Winds ( mph kmh ) Pressure ( in mb ) Visibility ( mi km ) Precip ( " mm )
12:15 am 00:15 Cloudy 45 7 45 7 100 100 Calm 29.79 1009 0.5 0.80467 0 0
12:35 am 00:35 Cloudy 45 7 45 7 100 100 NW 3 6 29.8 1009 0.75 1.207005 0 0
12:55 am 00:55 Cloudy 45 7 45 7 100 100 Calm 29.78 1008 0.75 1.207005 0 0
1:15 am 01:15 Cloudy 45 7 45 7 100 100 Calm 29.78 1008 0.75 1.207005 0 0
1:35 am 01:35 Cloudy 45 7 45 7 100 100 Calm 29.77 1008 0.75 1.207005 0 0
1:55 am 01:55 Cloudy 45 7 45 7 100 100 Calm 29.75 1007 0.75 1.207005 0 0
2:15 am 02:15 Cloudy 45 7 45 7 100 100 Calm 29.76 1008 0.5 0.80467 0 0
2:35 am 02:35 Cloudy 45 7 45 7 100 100 W 3 6 29.78 1008 0.5 0.80467 0 0
2:55 am 02:55 Cloudy 45 7 45 7 100 100 Calm 29.75 1007 0.25 0.402335 0 0
3:15 am 03:15 Cloudy 45 7 45 7 100 100 N 3 6 29.75 1007 0.25 0.402335 0 0
3:35 am 03:35 Cloudy 45 7 45 7 100 100 Calm 29.74 1007 0.25 0.402335 0 0
3:55 am 03:55 Cloudy 45 7 45 7 100 100 SE 3 6 29.71 1006 0.25 0.402335 0 0
4:15 am 04:15 Cloudy 45 7 45 7 100 100 Calm 29.7 1006 0.25 0.402335 0 0
4:35 am 04:35 Cloudy 45 7 45 7 100 100 Calm 29.71 1006 0.25 0.402335 0 0
4:55 am 04:55 Cloudy 45 7 45 7 100 100 Calm 29.7 1006 0.25 0.402335 0 0
5:15 am 05:15 Cloudy 45 7 45 7 100 100 Calm 29.7 1006 0.25 0.402335 0 0
5:35 am 05:35 Cloudy 45 7 45 7 100 100 Calm 29.69 1005 0.25 0.402335 0 0
5:55 am 05:55 Cloudy 45 7 45 7 100 100 Calm 29.69 1005 0.5 0.80467 0 0
6:15 am 06:15 Cloudy 43 6 43 6 100 100 WSW 3 6 29.7 1006 0.5 0.80467 0 0
6:35 am 06:35 Cloudy 45 7 45 7 100 100 W 3 6 29.71 1006 0.75 1.207005 0 0
6:55 am 06:55 Cloudy 45 7 45 7 100 100 WSW 3 6 29.71 1006 1 1.60934 0 0
7:15 am 07:15 Cloudy 45 7 45 7 100 100 SW 5 7 29.72 1006 10 16.0934 0 0
7:35 am 07:35 Mostly Cloudy 45 7 45 7 100 100 Calm 29.71 1006 7 11.26538 0 0
7:55 am 07:55 Cloudy 45 7 45 7 100 100 Calm 29.7 1006 7 11.26538 0 0
8:15 am 08:15 Cloudy 45 7 45 7 100 100 SSW 3 6 29.7 1006 10 16.0934 0 0
8:35 am 08:35 Cloudy 45 7 45 7 100 100 Calm 29.7 1006 7 11.26538 0 0
8:55 am 08:55 Cloudy 45 7 45 7 100 100 Calm 29.7 1006 7 11.26538 0 0
9:15 am 09:15 Cloudy 45 7 45 7 100 100 Calm 29.71 1006 4 6.43736 0 0
9:35 am 09:35 Cloudy 46 8 46 8 100 100 Calm 29.71 1006 7 11.26538 0 0
9:55 am 09:55 Cloudy 46 8 46 8 100 100 Calm 29.72 1006 10 16.0934 0 0
10:15 am 10:15 Cloudy 46 8 46 8 100 100 Calm 29.72 1006 10 16.0934 0 0
10:35 am 10:35 Cloudy 46 8 46 8 100 100 SSE 3 6 29.7 1006 10 16.0934 0 0
10:55 am 10:55 Partly Cloudy 48 9 48 9 100 100 Calm 29.69 1005 10 16.0934 0 0
11:15 am 11:15 Mostly Cloudy 50 10 50 10 100 100 Calm 29.67 1005 10 16.0934 0 0
11:35 am 11:35 Cloudy 50 10 50 10 100 100 Calm 29.66 1004 10 16.0934 0 0
11:55 am 11:55 Cloudy 50 10 50 10 100 100 Calm 29.65 1004 10 16.0934 0 0
12:15 pm 12:15 Cloudy 50 10 50 10 100 100 Calm 29.64 1004 10 16.0934 0 0
12:35 pm 12:35 Cloudy 52 11 52 11 100 100 Calm 29.62 1003 10 16.0934 0 0
12:55 pm 12:55 Cloudy 52 11 52 11 100 100 Calm 29.61 1003 10 16.0934 0 0
1:15 pm 13:15 Cloudy 52 11 52 11 100 100 Calm 29.6 1003 10 16.0934 0 0
1:35 pm 13:35 Cloudy 54 12 54 12 100 100 Calm 29.59 1002 10 16.0934 0 0
1:55 pm 13:55 Cloudy 54 12 52 11 94 94 Calm 29.58 1002 10 16.0934 0 0
2:15 pm 14:15 Cloudy 54 12 52 11 94 94 Calm 29.57 1001 10 16.0934 0 0
2:35 pm 14:35 Cloudy 54 12 50 10 88 88 Calm 29.56 1001 10 16.0934 0 0
2:55 pm 14:55 Cloudy 54 12 50 10 88 88 NE 9 15 29.56 1001 10 16.0934 0 0
3:15 pm 15:15 Cloudy 52 11 50 10 94 94 N 5 7 29.59 1002 4 6.43736 0 0
3:35 pm 15:35 Cloudy 46 8 46 8 100 100 NNW 16 26 29.62 1003 4 6.43736 0 0
3:55 pm 15:55 Cloudy 46 8 45 7 93 93 N 15 24 29.62 1003 7 11.26538 0 0
4:15 pm 16:15 Cloudy 45 7 45 7 100 100 NNW 13 20 29.64 1004 10 16.0934 0 0
4:35 pm 16:35 Cloudy 45 7 45 7 100 100 N 9 15 29.65 1004 10 16.0934 0 0
4:55 pm 16:55 Cloudy 45 7 43 6 93 93 N 8 13 29.64 1004 10 16.0934 0 0
5:15 pm 17:15 Cloudy 45 7 43 6 93 93 N 9 15 29.64 1004 10 16.0934 0 0
5:35 pm 17:35 Cloudy 45 7 43 6 93 93 N 7 11 29.65 1004 10 16.0934 0 0
5:55 pm 17:55 Cloudy 45 7 43 6 93 93 N 7 11 29.65 1004 10 16.0934 0 0
6:15 pm 18:15 Cloudy 45 7 41 5 87 87 N 7 11 29.65 1004 10 16.0934 0 0
6:35 pm 18:35 Cloudy 45 7 41 5 87 87 N 8 13 29.65 1004 10 16.0934 0 0
6:55 pm 18:55 Cloudy 45 7 41 5 87 87 NNW 8 13 29.66 1004 10 16.0934 0 0
7:15 pm 19:15 Cloudy 45 7 41 5 87 87 NNW 9 15 29.68 1005 10 16.0934 0 0
7:35 pm 19:35 Cloudy 45 7 41 5 87 87 NNW 8 13 29.69 1005 10 16.0934 0 0
7:55 pm 19:55 Cloudy 45 7 37 3 76 76 N 9 15 29.7 1006 10 16.0934 0 0
8:15 pm 20:15 Cloudy 45 7 37 3 76 76 NNW 15 24 29.71 1006 10 16.0934 0 0
8:35 pm 20:35 Cloudy 45 7 36 2 71 71 NNW 20 31 29.71 1006 10 16.0934 0 0
8:55 pm 20:55 Cloudy 45 7 36 2 71 71 NNW 18 30 29.72 1006 10 16.0934 0 0
9:15 pm 21:15 Cloudy 45 7 36 2 71 71 NNW 15 24 29.72 1006 10 16.0934 0 0
9:35 pm 21:35 Mostly Cloudy 43 6 36 2 76 76 NNW 18 30 29.72 1007 10 16.0934 0 0
9:55 pm 21:55 Mostly Cloudy 43 6 36 2 76 76 NNW 18 30 29.75 1008 10 16.0934 0 0
10:15 pm 22:15 Cloudy 43 6 36 2 76 76 N 16 26 29.74 1007 10 16.0934 0 0
10:35 pm 22:35 Cloudy 43 6 34 1 71 71 N 18 30 29.76 1008 10 16.0934 0 0
10:55 pm 22:55 Mostly Cloudy 43 6 34 1 71 71 NNW 15 24 29.77 1008 10 16.0934 0 0
11:15 pm 23:15 Mostly Cloudy 41 5 32 0 70 70 NNW 13 20 29.78 1009 10 16.0934 0 0
11:35 pm 23:35 Mostly Cloudy 41 5 34 1 76 76 NNW 13 20 29.78 1009 10 16.0934 0 0
11:55 pm 23:55 Cloudy 41 5 32 0 70 70 NNW 22 35 29.78 1009 10 16.0934 0 0

Powered by AerisWeather